Back to catalog

SL-12 R/B(2)

AliveGEO
NORAD 14194·ROCKET BODY·🇷🇺 Russia

Launched Mar 18, 1981 from Baikonur Cosmodrome

Loading…

TLE

FreshSource: Space-Track

Epoch: Sep 14, 2026, 13:20 UTC

1 14194U 81027F   26257.55616414 -.00000051  00000-0  00000-0 0  9998
2 14194   7.8387 296.3005 0016488 223.5561 298.1920  0.97663026120980

Track SL-12 R/B(2) in real time with AllMySat

Download on the App Store